• In Hungary
  • List of Countries
  • For 7 days
  • Water Temperature
  • Satellite Maps
  • Weather Map
  • News
  • Weather Widgets
  • user-avatar
    Login

    Hourly Weather Oostkamp

    Today, 12 December, Tuesday

    Time Temperature Precipitation Wind Pressure Humidity
    00:00 0°C° 0 mm 7 mps 744 mmHg 76%
    01:00 +1°C° 0.2 mm 6 mps 745 mmHg 78%
    02:00 +1°C° 0.2 mm 6 mps 746 mmHg 80%
    03:00 +1°C° 0.2 mm 5 mps 748 mmHg 81%
    04:00 +1°C° 0.4 mm 5 mps 749 mmHg 83%
    05:00 +1°C° 0.4 mm 5 mps 750 mmHg 84%
    06:00 +1°C° 0 mm 6 mps 751 mmHg 86%
    07:00 +1°C° 0.2 mm 5 mps 752 mmHg 85%
    08:00 +1°C° 0.2 mm 5 mps 753 mmHg 85%
    09:00 +1°C° 0.2 mm 4 mps 754 mmHg 85%
    10:00 +2°C° 0.3 mm 5 mps 754 mmHg 82%
    11:00 +2°C° 0.3 mm 5 mps 755 mmHg 79%
    12:00 +3°C° 0.3 mm 6 mps 756 mmHg 77%
    13:00 +2°C° 0.1 mm 5 mps 756 mmHg 78%
    14:00 +2°C° 0.1 mm 5 mps 756 mmHg 80%
    15:00 +3°C° 0.1 mm 4 mps 757 mmHg 81%
    16:00 +1°C° 0 mm 4 mps 757 mmHg 83%
    17:00 0°C° 0 mm 5 mps 758 mmHg 85%
    18:00 0°C° 0 mm 5 mps 758 mmHg 87%
    19:00 0°C° 0 mm 5 mps 758 mmHg 87%
    20:00 0°C° 0 mm 5 mps 758 mmHg 87%
    21:00 -1°C° 0 mm 6 mps 758 mmHg 86%
    22:00 -1°C° 0 mm 6 mps 758 mmHg 86%
    23:00 -1°C° 0 mm 7 mps 758 mmHg 85%

    Tomorrow, 13 December, Wednesday

    Time Temperature Precipitation Wind Pressure Humidity
    00:00 0°C° 0 mm 8 mps 757 mmHg 85%
    01:00 0°C° 0.1 mm 8 mps 757 mmHg 85%
    02:00 0°C° 0.1 mm 9 mps 756 mmHg 86%
    03:00 0°C° 0.1 mm 9 mps 755 mmHg 86%
    04:00 +1°C° 0.7 mm 10 mps 754 mmHg 86%
    05:00 +1°C° 0.7 mm 11 mps 753 mmHg 85%
    06:00 0°C° 0.7 mm 12 mps 753 mmHg 84%
    07:00 +2°C° 0.2 mm 11 mps 752 mmHg 85%
    08:00 +3°C° 0.2 mm 10 mps 752 mmHg 86%
    09:00 +3°C° 0.2 mm 9 mps 752 mmHg 86%
    10:00 +5°C° 0.3 mm 8 mps 751 mmHg 87%
    11:00 +5°C° 0.3 mm 7 mps 751 mmHg 87%
    12:00 +5°C° 0.3 mm 7 mps 750 mmHg 88%
    13:00 +5°C° 0.5 mm 7 mps 749 mmHg 89%
    14:00 +5°C° 0.5 mm 7 mps 748 mmHg 90%
    15:00 +5°C° 0.5 mm 8 mps 747 mmHg 90%
    16:00 +6°C° 1.3 mm 10 mps 746 mmHg 89%
    17:00 +6°C° 1.3 mm 11 mps 745 mmHg 88%
    18:00 +7°C° 1.3 mm 13 mps 744 mmHg 86%
    19:00 +5°C° 0.6 mm 12 mps 745 mmHg 79%
    20:00 +4°C° 0.6 mm 11 mps 745 mmHg 72%
    21:00 +3°C° 0.6 mm 10 mps 745 mmHg 65%
    22:00 +3°C° 0.7 mm 11 mps 745 mmHg 66%
    23:00 +3°C° 0.7 mm 13 mps 745 mmHg 66%

    Day after tomorrow, 14 December, Thursday

    Time Temperature Precipitation Wind Pressure Humidity
    00:00 +3°C° 0.7 mm 14 mps 745 mmHg 66%
    01:00 +3°C° 0.1 mm 13 mps 746 mmHg 65%
    02:00 +2°C° 0.1 mm 12 mps 746 mmHg 63%
    03:00 0°C° 0.1 mm 12 mps 747 mmHg 61%
    04:00 +1°C° 0.1 mm 11 mps 747 mmHg 63%
    05:00 +1°C° 0.1 mm 10 mps 747 mmHg 65%
    06:00 +1°C° 0.1 mm 10 mps 747 mmHg 67%
    07:00 +1°C° 0.1 mm 9 mps 747 mmHg 68%
    08:00 +2°C° 0.1 mm 9 mps 747 mmHg 70%
    09:00 +2°C° 0.1 mm 8 mps 746 mmHg 72%
    10:00 +2°C° 0.3 mm 8 mps 745 mmHg 75%
    11:00 +3°C° 0.3 mm 7 mps 745 mmHg 79%
    12:00 +3°C° 0.3 mm 7 mps 744 mmHg 83%
    13:00 +4°C° 1.3 mm 6 mps 743 mmHg 83%
    14:00 +5°C° 1.3 mm 5 mps 742 mmHg 84%
    15:00 +5°C° 1.3 mm 5 mps 741 mmHg 84%
    16:00 +3°C° 0.5 mm 6 mps 742 mmHg 81%
    17:00 +3°C° 0.5 mm 6 mps 742 mmHg 78%
    18:00 +2°C° 0.5 mm 7 mps 742 mmHg 75%
    19:00 +2°C° 0.1 mm 7 mps 743 mmHg 75%
    20:00 +1°C° 0.1 mm 6 mps 743 mmHg 75%
    21:00 +1°C° 0.1 mm 6 mps 743 mmHg 74%
    22:00 +1°C° 0.1 mm 5 mps 743 mmHg 77%
    23:00 +1°C° 0.1 mm 5 mps 744 mmHg 80%

    15 December, Friday

    Time Temperature Precipitation Wind Pressure Humidity
    00:00 0°C° 0.1 mm 4 mps 744 mmHg 83%
    01:00 0°C° 0 mm 4 mps 744 mmHg 85%
    02:00 0°C° 0 mm 4 mps 744 mmHg 87%
    03:00 0°C° 0 mm 4 mps 744 mmHg 89%
    04:00 +1°C° 0.2 mm 4 mps 744 mmHg 89%
    05:00 +1°C° 0.2 mm 4 mps 744 mmHg 89%
    06:00 +1°C° 0.2 mm 4 mps 744 mmHg 89%
    07:00 +1°C° 0.4 mm 4 mps 745 mmHg 90%
    08:00 +3°C° 0.4 mm 4 mps 745 mmHg 90%
    09:00 +3°C° 0.4 mm 4 mps 746 mmHg 90%
    10:00 +4°C° 0.1 mm 4 mps 746 mmHg 85%
    11:00 +4°C° 0.1 mm 4 mps 747 mmHg 81%
    12:00 +5°C° 0.1 mm 5 mps 747 mmHg 76%
    13:00 +5°C° 0 mm 4 mps 748 mmHg 77%
    14:00 +4°C° 0 mm 3 mps 748 mmHg 78%
    15:00 +4°C° 0 mm 3 mps 749 mmHg 79%
    16:00 +3°C° 0 mm 3 mps 750 mmHg 81%
    17:00 +3°C° 0 mm 3 mps 750 mmHg 82%
    18:00 +2°C° 0 mm 3 mps 751 mmHg 84%
    19:00 +2°C° 0 mm 3 mps 752 mmHg 84%
    20:00 +2°C° 0 mm 3 mps 753 mmHg 84%
    21:00 +2°C° 0 mm 3 mps 754 mmHg 85%
    22:00 +2°C° 0 mm 3 mps 754 mmHg 85%
    23:00 +1°C° 0 mm 4 mps 755 mmHg 85%

    16 December, Saturday

    Time Temperature Precipitation Wind Pressure Humidity
    00:00 +1°C° 0 mm 4 mps 755 mmHg 85%
    01:00 +1°C° 0 mm 4 mps 756 mmHg 86%
    02:00 +1°C° 0 mm 5 mps 756 mmHg 87%
    03:00 +1°C° 0 mm 5 mps 756 mmHg 87%
    04:00 +1°C° 0.1 mm 5 mps 757 mmHg 88%
    05:00 +1°C° 0.1 mm 5 mps 757 mmHg 88%
    06:00 +1°C° 0.1 mm 6 mps 758 mmHg 88%
    07:00 +1°C° 0.1 mm 6 mps 758 mmHg 86%
    08:00 +2°C° 0.1 mm 6 mps 759 mmHg 84%
    09:00 +2°C° 0.1 mm 6 mps 759 mmHg 82%
    10:00 +2°C° 0 mm 6 mps 759 mmHg 78%
    11:00 +3°C° 0 mm 6 mps 760 mmHg 73%
    12:00 +3°C° 0 mm 6 mps 760 mmHg 68%
    13:00 +3°C° 0.1 mm 6 mps 760 mmHg 71%
    14:00 +3°C° 0.1 mm 6 mps 760 mmHg 74%
    15:00 +2°C° 0.1 mm 6 mps 761 mmHg 77%
    16:00 +2°C° 0.1 mm 6 mps 761 mmHg 78%
    17:00 +2°C° 0.1 mm 6 mps 762 mmHg 79%
    18:00 +1°C° 0.1 mm 6 mps 763 mmHg 80%
    19:00 +1°C° 0.1 mm 5 mps 763 mmHg 81%
    20:00 +1°C° 0.1 mm 5 mps 764 mmHg 81%
    21:00 +1°C° 0.1 mm 5 mps 764 mmHg 82%
    22:00 +1°C° 0.1 mm 5 mps 764 mmHg 81%
    23:00 +1°C° 0.1 mm 4 mps 765 mmHg 81%

    17 December, Sunday

    Time Temperature Precipitation Wind Pressure Humidity
    00:00 +1°C° 0.1 mm 4 mps 765 mmHg 81%
    01:00 0°C° 0.1 mm 4 mps 765 mmHg 81%
    02:00 0°C° 0.1 mm 4 mps 765 mmHg 81%
    03:00 +1°C° 0.1 mm 3 mps 765 mmHg 81%
    04:00 +1°C° 0 mm 3 mps 766 mmHg 81%
    05:00 0°C° 0 mm 3 mps 766 mmHg 81%
    06:00 0°C° 0 mm 3 mps 766 mmHg 81%
    07:00 +1°C° 0 mm 2 mps 767 mmHg 81%
    08:00 +2°C° 0 mm 2 mps 767 mmHg 81%
    09:00 +2°C° 0 mm 2 mps 767 mmHg 81%
    10:00 +3°C° 0 mm 2 mps 767 mmHg 79%
    11:00 +4°C° 0 mm 2 mps 767 mmHg 76%
    12:00 +4°C° 0 mm 2 mps 768 mmHg 74%
    13:00 +4°C° 0 mm 2 mps 768 mmHg 77%
    14:00 +4°C° 0 mm 2 mps 768 mmHg 79%
    15:00 +3°C° 0 mm 2 mps 768 mmHg 82%
    16:00 +2°C° 0 mm 2 mps 768 mmHg 85%
    17:00 +2°C° 0 mm 2 mps 769 mmHg 87%
    18:00 +1°C° 0 mm 2 mps 769 mmHg 90%
    19:00 0°C° 0 mm 3 mps 769 mmHg 91%
    20:00 0°C° 0 mm 3 mps 769 mmHg 92%
    21:00 0°C° 0 mm 3 mps 769 mmHg 93%
    22:00 0°C° 0 mm 3 mps 769 mmHg 93%
    23:00 -1°C° 0 mm 4 mps 769 mmHg 94%
    Show more